User: anonymous   Login
Location: Le Castellard
(44.1862°N, 6.1301°E)
Time: 01:22:28
(UTC+00:00)
Language:

STARLINK-71 - Orbit

View from above orbital plane
View from above orbital plane
View from above satellite
View from above satellite

Ground track
Ground track

The orbit data is extracted from the following two-line orbital elements,

1 44252U 19029T   20091.91667824  .00045938  00000-0  26362-2 0  9993
2 44252  52.9988 201.3444 0001377 112.1823  46.0856 15.12120427 47302
Epoch (UTC): 31 March 2020 22:00:01
Eccentricity: 0.0001377
inclination: 52.9988°
perigee height: 529 km
apogee height: 530 km
right ascension of ascending node: 201.3444°
argument of perigee: 112.1823°
revolutions per day: 15.12120427
mean anomaly at epoch: 46.0856°
orbit number at epoch: 4730

The dashed part of the orbit path shows where the satellite is in the earth's shadow,  

DLR